Reflectivity
-20 -20 -20 -20 -20 -20 -20 -20 -20 2 -20 -20 -20 -20 -15 -13 -19 -3 -20 -13 -17 -20 -20 -20 -20 -20 -20 -20 -20 -20 -20 -20 -20 -20 -20 -20 -20 -20 -20 -20 5 -4 -12
-20 -20 -20 -20 -20 -20 -20 -20 3 -20 -20 -18 -18 -6 -20 -16 -9 -20 -20 -18 -14 -20 -20 -20 -20 -20 -20 -20 -20 -20 -20 -20 -20 -20 -20 -20 -20 -20 -20 -20 -20 -20 -20
-20 -7 -20 -20 -20 -20 -20 -20 -20 -20 -20 -4 2 13 -20 -20 -20 -20 -20 -20 -19 -20 -19 -20 -20 -20 -20 -20 -20 -20 -20 -20 -20 -20 -20 -20 -20 -20 -20 -20 -20 -20 -20
-20 -20 -20 -20 -20 -20 -20 -20 -20 -20 -0 -20 8 12 -20 -17 -19 -20 -20 -20 -5 14 -20 -20 -20 -20 -20 -20 -20 -20 -20 -20 -20 -20 -9 -18 -20 -20 -20 -20 -20 -20 -20
-20 -20 -20 -20 -20 1 -20 -20 -20 -6 -20 -20 11 15 17 -2 -20 -20 -20 -20 -20 9 -20 -20 -20 -20 -20 -20 -20 -20 -20 -20 -20 -20 -20 10 -20 -12 6 -16 -20 -20 14
-20 -20 -20 -20 -20 -20 -20 -20 1 11 -20 -20 -20 -2 17 7 -20 -20 -20 -20 -20 -19 -20 -20 -20 -20 -20 -20 -20 -20 -20 -20 2 -12 -20 9 -20 20 11 14 14 10 3
-20 -20 -20 -20 -20 -20 -11 -12 -20 -20 -20 -20 -20 -20 -16 -18 -20 9 -20 -20 -1 -20 -8 -20 -20 -20 -20 -20 -20 -20 -20 5 -8 5 -6 -14 -3 -12 -20 -8 13 0 12
-20 -20 -20 -19 -20 -20 -20 -3 -20 -20 -20 -20 -20 -20 -20 -14 12 -1 -20 -20 -19 -20 -16 -20 -20 -20 -20 -20 -20 -20 -20 -20 -3 -15 -14 -10 7 -20 -3 4 11 13 -20
-20 -20 -20 -18 -11 -20 -20 3 -20 -20 -20 -20 -20 -20 -20 -20 9 14 -20 8 5 -17 -20 -20 -20 -20 -20 -20 -20 -20 -20 -20 -20 -16 -20 -20 -20 8 -20 -20 -20 -20 -20
-20 -20 -20 -20 -20 13 4 0 -7 -20 -20 -20 -20 -20 -20 -20 -20 16 -13 -2 8 -20 -20 -20 -20 -20 -20 -20 -20 -20 -20 -20 -20 -20 -20 -20 -20 -20 -20 -20 -20 -20 -20
-20 -20 -20 -0 -20 -20 -20 -14 -16 -19 -19 -20 -20 -20 -20 -20 -20 -20 -9 -20 -20 -20 -20 -20 -20 -20 -20 -20 -20 -20 -20 -20 -20 -20 -20 -20 -20 -20 -20 -20 -20 -20 -20
-20 -14 -20 -11 -20 -20 -20 -20 -15 12 8 -20 -20 -20 -20 -20 -20 -20 -18 -6 -20 -20 -20 -20 -20 -20 -20 -20 -20 -20 -20 -20 -20 -20 -20 -20 -20 -20 -20 -20 -20 -20 -20
-19 -17 -20 -20 -20 -20 -20 -20 -18 9 7 -20 -20 -20 -20 -20 -20 -20 -20 -20 -20 -20 -20 -20 -20 -20 -20 -20 -20 -20 -20 -20 -20 -20 -20 -20 -20 -20 -20 -20 -20 -20 -20
-20 3 -18 -20 -20 -20 -20 -20 -20 -20 -20 -20 -20 -20 -20 -20 -20 -20 -20 -20 -20 -20 -20 -20 -20 -20 -20 -20 -20 -20 -20 -20 -20 -20 -20 -20 -20 -20 -20 -20 -20 -20 -20
-20 -20 -20 -20 -20 -20 -20 -20 -20 -20 -20 -20 -20 -20 -20 -20 -20 -20 -20 -20 -20 -20 -20 -20 -20 -20 -20 -20 -20 -20 -20 -20 -20 -20 -20 -20 -20 -20 -20 -20 -20 -20 -20
-20 -20 -20 -20 -20 -20 -20 -20 -20 -20 -20 -20 -20 -20 -20 -20 -20 -20 -20 -20 -20 -20 -20 -20 -20 -20 -20 -20 -20 -20 -20 -20 -20 -20 -20 -20 -20 -20 -20 -20 -20 -20 -20
-20 -19 -20 -20 -20 -20 -20 -20 -20 -20 -20 -20 -20 -20 -20 -20 -20 -20 -20 -20 -20 -20 -20 -20 -20 -20 -20 -20 -20 -20 -20 -20 -20 -20 -20 -20 -20 -20 -20 -20 -20 -20 -20
-20 -20 -20 -20 -20 -20 -20 -20 -20 -20 -20 -20 -20 -20 -20 -20 -20 -20 -20 -20 -20 -20 -20 -20 -20 -20 -20 -20 -20 -20 -20 -20 -20 -20 -20 -20 -20 -20 -20 -20 -20 -20 -20
-20 -20 -20 -20 -20 -20 -20 -20 -20 -20 -20 -20 -20 -20 -20 -20 -20 -20 -20 -20 -20 -20 -20 -20 -20 -20 -20 -20 -20 -20 -20 -20 -20 -20 -20 -20 -20 -20 -20 -20 -20 -20 -20
-7 -20 15 -20 -20 -20 -20 -20 -20 -20 -20 -20 -20 -20 -20 -20 -20 -20 -20 -20 -20 -20 -20 -20 -20 -20 -20 -20 -20 -20 -20 -20 -20 -20 -20 -20 -20 -20 -20 -20 -20 -20 -20
-20 -20 28 7 -20 -20 -20 -20 -20 -20 -20 -20 -20 -20 -20 -20 -20 -20 -20 -20 -20 -20 -20 -20 -20 -20 -20 -20 -20 -20 -20 -20 -20 -20 -20 -20 -20 -20 -20 -20 -20 -20 -20
-20 -20 -20 -20 -10 4 -20 -20 -20 -15 -20 -20 -20 -20 -20 -20 -20 -20 -20 -20 -20 -20 -20 -20 -20 -20 -20 -20 -20 -20 -20 -20 -20 -20 -20 -20 -20 -20 -20 -20 -20 -20 -20
-20 -20 -20 -20 -20 -20 0 -20 -6 -20 -20 -20 -20 -20 -20 -20 -13 -20 -20 -20 -20 -20 -20 -20 -20 -20 -20 -20 -20 -20 -20 -20 -20 -20 -20 -20 -20 -20 -20 -20 -20 -20 -20
-20 -20 -20 -20 -20 -20 -20 -20 -20 -20 -20 -20 -20 -20 -20 -20 -20 -20 -20 -20 -20 -20 -20 -6 -19 -20 -20 -20 -20 -20 -20 -20 -20 -20 -20 -20 -20 -20 -20 -20 -20 -20 -20
-20 -20 -20 -20 -20 -20 -20 -20 -20 -20 -20 -20 -20 -20 -20 -20 -20 -20 -20 -18 -20 -20 -20 -20 -18 -20 -20 -20 -20 14 -7 -20 -18 -20 -20 -20 -20 -20 -20 -20 -20 -20 -20
-20 -20 -20 -20 -20 -20 -20 -20 -20 -20 -20 -20 -20 -20 -20 -20 -20 -20 -20 -20 -20 -6 -8 -20 -6 -20 -18 -20 -20 -20 18 1 15 15 -15 -12 -1 -20 -20 -20 -20 -6 -20
Wind_Speed
13 14 19 19 18 17 16 16 16 15 14 14 14 13 12 11 12 12 12 12 12 13 15 14 14 14 14 14 15 14 13 13 13 13 13 12 12 12 13 14 14 10 13
18 15 19 19 18 17 16 16 15 14 14 14 15 13 13 11 12 12 11 12 12 14 14 14 14 14 14 14 14 14 12 11 10 10 11 11 10 12 13 15 13 9 11
19 16 15 18 17 17 16 15 15 14 14 14 16 15 12 11 10 9 10 9 11 13 15 13 13 14 13 13 13 12 10 7 6 4 3 6 6 11 12 12 11 10 9
18 15 14 18 17 16 16 15 15 15 15 13 14 13 12 11 9 8 8 8 8 13 15 13 13 13 13 12 12 10 6 6 4 3 1 4 9 11 9 9 11 11 6
17 15 14 17 17 16 17 16 15 15 15 14 13 12 10 10 8 8 9 8 8 14 15 13 13 13 12 13 11 7 4 5 6 6 9 7 6 10 15 13 13 14 10
15 15 16 16 16 16 16 16 16 17 15 14 11 11 11 9 6 8 11 11 10 15 14 13 12 12 12 11 9 4 3 5 9 8 7 10 7 14 19 18 15 17 19
16 15 13 16 17 17 17 17 16 15 15 13 11 10 8 7 2 14 14 12 15 14 14 13 12 12 11 9 7 2 3 6 3 7 7 7 7 17 17 15 13 14 16
16 15 13 15 16 16 17 17 16 15 14 13 12 10 10 8 13 17 14 14 15 14 13 12 12 11 9 8 6 1 5 7 2 7 8 6 11 15 13 12 13 13 14
16 14 12 10 12 14 15 16 16 15 15 13 12 11 8 11 11 16 14 14 14 13 12 11 10 9 8 7 6 3 4 7 3 5 10 4 11 12 12 12 13 13 14
15 12 13 11 10 10 9 14 14 15 14 14 12 11 9 10 10 11 12 10 12 11 11 10 10 9 8 7 5 2 4 7 1 8 6 4 10 11 12 12 12 12 12
14 10 11 12 11 10 10 9 11 14 13 12 11 11 8 5 6 7 7 11 11 10 10 9 9 9 8 6 4 2 5 3 3 6 4 10 11 11 12 11 11 11 11
13 12 11 10 13 13 11 10 7 8 7 7 6 7 5 6 6 8 8 11 10 10 9 9 9 8 7 4 3 3 3 5 4 6 4 11 10 10 11 10 10 10 11
4 12 12 10 10 8 11 8 5 5 6 7 10 8 7 5 5 6 4 4 4 6 4 5 5 3 6 4 5 4 5 3 3 4 7 11 10 9 10 9 9 10 9
7 4 14 10 8 7 6 6 7 7 8 7 8 9 4 4 5 5 5 5 5 4 5 5 4 6 6 6 7 6 4 4 3 3 6 11 10 9 9 9 9 9 8
8 2 1 3 3 7 7 3 4 4 4 5 9 9 5 5 5 5 5 5 5 6 5 6 6 7 6 4 3 4 4 4 4 4 3 11 10 9 9 9 9 9 8
10 7 3 3 4 4 6 6 4 4 5 3 4 7 7 5 5 5 5 5 5 6 5 6 5 5 5 4 4 4 5 4 4 7 5 5 10 9 9 9 9 8 8
8 13 11 5 5 4 5 7 4 5 5 4 4 6 7 6 6 6 5 4 4 4 6 4 4 4 3 3 5 5 5 6 4 5 6 5 6 9 9 9 9 8 8
7 11 15 11 6 5 5 3 5 5 4 4 4 5 7 6 7 5 4 4 5 4 4 3 3 3 3 4 2 3 4 4 5 5 5 5 5 5 6 10 11 9 9
8 7 12 14 11 7 5 4 2 6 5 5 5 5 7 7 7 6 4 4 6 4 4 3 3 4 3 3 3 4 3 3 4 3 6 7 7 6 4 8 10 8 9
8 6 10 13 14 12 5 4 3 3 4 5 5 5 7 7 7 6 5 6 5 4 5 3 4 3 4 5 4 4 4 3 3 4 5 4 6 7 6 6 5 5 8
6 6 8 9 11 11 9 6 3 3 2 2 4 7 8 8 9 9 6 7 6 6 6 6 5 5 4 4 4 1 1 5 5 4 4 4 6 6 7 6 5 4 4
7 7 5 7 6 9 8 7 5 4 4 3 3 4 6 7 8 9 9 8 7 5 7 7 7 4 4 5 5 3 2 3 4 6 4 5 7 5 6 8 7 7 6
3 3 4 6 5 4 7 7 4 4 2 3 7 7 6 5 7 8 8 7 6 6 7 7 8 9 7 5 7 6 3 5 2 3 6 5 6 4 5 6 7 7 8
5 7 7 7 3 3 4 7 9 8 7 7 6 6 7 7 7 6 6 7 7 5 6 7 6 7 6 8 1 9 2 4 4 1 1 4 5 6 6 5 6 6 6
7 6 5 6 6 6 5 4 3 6 7 5 4 7 10 8 10 8 5 6 6 5 5 6 6 7 8 6 8 3 6 2 2 3 3 3 1 3 4 5 5 5 6
6 5 3 3 4 4 4 6 5 5 5 2 4 4 3 5 6 8 9 5 6 5 5 4 7 8 9 9 5 5 5 5 6 4 2 2 3 2 2 3 3 3 4
Wind_Direction
128 139 141 136 134 130 131 133 135 136 134 131 122 114 111 107 109 112 110 105 105 102 93 88 85 84 82 83 86 87 87 87 87 92 85 70 70 70 59 60 76 79 73
128 142 139 137 135 134 134 131 131 129 131 128 121 118 115 109 106 108 112 113 113 111 104 95 92 89 87 86 85 85 86 95 107 109 111 89 68 67 63 63 68 69 66
131 137 140 139 137 139 137 133 130 126 124 128 127 120 111 111 106 105 107 110 121 126 103 101 96 93 90 90 92 89 92 105 101 107 182 108 83 71 72 69 68 64 63
132 144 140 141 142 141 136 132 128 128 125 123 118 117 125 120 116 115 115 115 115 130 109 104 101 98 95 92 95 94 96 70 30 326 298 72 96 84 78 82 75 54 71
130 152 135 139 143 140 136 135 134 126 124 121 119 120 128 121 121 130 121 118 106 124 111 109 107 106 98 93 97 97 78 38 345 51 55 54 59 75 66 112 76 46 70
142 121 137 139 142 136 137 135 129 127 125 123 119 114 113 117 129 126 121 107 110 117 116 114 113 110 99 93 94 94 46 2 356 67 72 67 59 81 72 76 73 66 71
112 124 133 137 134 138 139 134 131 130 129 123 118 118 121 111 118 154 122 114 120 117 118 121 119 111 101 93 92 38 336 4 351 89 72 76 78 81 72 71 70 70 70
122 126 131 137 138 142 143 136 136 133 132 126 123 126 134 104 116 118 120 123 123 122 121 122 119 115 107 99 94 71 346 350 61 101 83 76 81 80 82 79 80 77 71
125 133 128 135 136 140 141 139 141 139 134 134 132 134 120 108 107 122 122 128 127 125 121 124 126 125 116 101 99 81 333 333 17 114 95 83 86 83 84 77 79 78 77
129 137 143 141 147 146 144 149 143 142 144 141 139 135 119 114 111 119 118 121 124 126 127 128 131 131 122 113 112 137 300 327 33 90 95 88 92 90 89 84 80 82 79
132 143 142 148 158 153 152 155 147 152 149 149 139 140 140 149 153 149 158 135 132 132 136 140 141 135 126 129 137 208 284 282 129 99 101 96 96 98 95 91 85 84 83
138 142 147 171 170 164 159 149 158 157 152 154 148 158 177 174 173 159 130 135 146 142 146 152 149 152 168 162 172 222 248 263 94 105 110 111 111 109 109 105 102 99 94
243 153 167 199 162 162 136 156 161 162 163 174 164 188 211 140 136 122 129 144 143 150 158 150 152 191 206 208 165 204 230 186 119 114 131 126 124 122 119 115 113 108 101
245 262 169 184 147 144 131 157 171 173 177 178 176 188 206 140 148 158 155 168 167 171 182 179 179 208 230 207 175 201 196 111 97 117 142 136 139 133 130 128 127 120 115
213 205 29 345 157 144 138 177 178 164 168 173 173 185 181 143 155 184 165 169 182 168 190 187 193 202 195 196 220 162 123 116 109 115 127 140 139 144 144 142 143 137 133
193 176 194 237 272 156 149 169 175 159 171 172 158 166 176 157 164 182 176 179 183 168 201 181 205 180 170 177 195 144 135 123 147 122 136 141 146 154 160 159 159 157 150
186 168 170 204 254 279 190 158 181 168 159 182 166 168 179 164 175 178 177 178 183 183 194 182 202 162 168 183 175 162 159 168 180 148 155 150 148 163 175 178 169 171 166
175 172 166 169 197 235 267 188 169 170 172 172 171 166 178 180 175 178 178 187 185 179 179 182 178 172 176 171 165 183 163 160 175 185 147 156 161 161 180 184 177 181 177
203 175 157 163 172 204 244 278 236 177 166 177 177 179 178 187 183 171 182 205 186 184 183 186 190 154 165 179 181 189 173 178 194 184 179 160 174 160 168 174 164 178 186
187 187 186 167 170 183 189 242 289 318 181 178 179 185 183 180 185 174 187 199 191 183 188 179 172 180 161 177 186 178 184 192 198 204 191 180 166 158 162 149 144 157 179
179 174 204 183 183 171 172 186 228 241 273 288 195 186 189 183 188 185 189 191 194 186 188 186 176 181 202 160 124 6 262 206 215 215 203 194 177 176 148 154 159 158 176
173 183 219 207 200 181 166 182 183 177 242 263 301 293 216 195 190 192 194 204 193 181 189 189 178 173 181 179 153 119 242 301 248 216 209 204 192 172 176 166 175 164 172
161 192 217 227 229 222 161 168 170 144 197 198 238 254 256 251 204 194 192 195 209 190 199 193 191 180 190 202 177 156 197 221 153 205 208 202 184 176 178 177 179 171 163
45 39 14 353 276 244 244 156 175 191 195 206 199 212 228 254 258 250 217 194 197 199 201 212 193 193 150 199 154 225 199 144 176 200 292 213 192 179 181 183 168 158 149
41 23 358 339 332 329 344 312 210 214 206 194 189 196 203 210 221 242 256 228 207 207 211 202 208 198 201 179 199 177 238 215 193 140 195 236 233 187 176 164 156 157 157
55 49 18 266 276 305 320 311 309 304 299 254 203 196 204 184 196 212 223 224 232 219 231 230 221 203 202 200 186 189 189 186 215 185 187 173 204 238 136 138 138 155 166